HST (20580 NORAD) Tracking and Keplerian Element Data

This shows tracking and keplerian element data for the satellite.

Feedback or suggestion? Click here.




ElementValue
Catalog20580
NameHST
Epoch Orbit59020
Epoch Day325.12607594
Epoch Year2022
RAAN210.1925
Inclination28.4693
Eccentricity0.0002386
Argument of Perigee292.0298
Mean Anonmoly224.5834
Mean Motion15.11291336
Decay Rate2.228E-05
L11 20580U 90037B 22325.12607594 .00002228 00000+0 11836-3 0 9997
L22 20580 28.4693 210.1925 0002386 292.0298 224.5834 15.11291336590206



Live tracking and technical data element details for HST (NORAD 20580). HST can be tracked NOW for your location showing map with azimuth and elevation plus other details from your city location.







IsCatalogInMostPopularTable: catalog: 20580, numindb: 1231
Update: records affected: 1



GetName: 20580 HST

Hit Count: updated at: Fri, 02 Dec 2022 13:25:58 GMT